KF5JED-13 Weather Reports


time (UTC)temp
C
wind
direction
speed
KPH
gust
KPH
rain 1hr
cm
rain 24hr
cm
rain mn
cm
humidity
%
barometer
mb
20260905052732 26 180 6.4 14.5 0.00 0.00 0.00 60 1016.6
20260905052227 26 167 6.4 9.7 0.00 0.00 0.00 60 1016.6
20260905051726 26 184 6.4 9.7 0.00 0.00 0.00 59 1016.5
20260905051223 26 218 6.4 6.4 0.00 0.00 0.00 60 1016.6
20260905050720 26 254 3.2 3.2 0.00 0.00 0.00 60 1016.8
20260905050216 26 321 4.8 4.8 0.00 0.00 0.00 60 1016.6
20260905045715 26 333 1.6 4.8 0.00 0.00 0.00 61 1016.8
20260905045211 26 299 4.8 4.8 0.00 0.00 0.00 60 1016.6
20260905044706 26 346 3.2 4.8 0.00 0.00 0.00 60 1016.5
20260905044202 26 89 0.0 4.8 0.00 0.00 0.00 58 1016.5
20260905043700 26 94 0.0 8.0 0.00 0.00 0.00 57 1016.3
20260905043155 27 136 4.8 9.7 0.00 0.00 0.00 57 1016.5
20260905042654 26 155 9.7 11.3 0.00 0.00 0.00 57 1016.5
20260905042148 26 156 8.0 16.1 0.00 0.00 0.00 58 1016.1
20260905041644 26 162 9.7 12.9 0.00 0.00 0.00 58 1016.5
20260905041139 26 163 11.3 14.5 0.00 0.00 0.00 58 1016.2
20260905040634 27 173 9.7 16.1 0.00 0.00 0.00 58 1016.3
20260905040133 27 166 11.3 14.5 0.00 0.00 0.00 56 1016.2
20260905035628 27 166 12.9 19.3 0.00 0.00 0.00 55 1016.1
20260905035125 27 170 16.1 19.3 0.00 0.00 0.00 54 1016.2
20260905034621 28 159 14.5 24.1 0.00 0.00 0.00 53 1016.2
20260905034119 28 164 19.3 25.7 0.00 0.00 0.00 52 1016.2
20260905033614 28 165 17.7 25.7 0.00 0.00 0.00 51 1016.0
20260905033110 28 160 19.3 29.0 0.00 0.00 0.00 49 1016.1
20260905032609 28 157 17.7 32.2 0.00 0.00 0.00 48 1015.9
20260905032109 29 162 24.1 29.0 0.00 0.00 0.00 46 1015.7
20260905031605 29 155 24.1 27.4 0.00 0.00 0.00 45 1015.8
20260905031105 29 152 20.9 27.4 0.00 0.00 0.00 45 1015.6
20260905030600 30 157 16.1 27.4 0.00 0.00 0.00 42 1015.6
20260905030055 31 162 14.5 20.9 0.00 0.00 0.00 38 1015.5
20260905025550 30 154 24.1 25.7 0.00 0.00 0.00 39 1015.3
20260905025041 31 152 20.9 27.4 0.00 0.00 0.00 38 1015.1
20260905024536 31 156 19.3 24.1 0.00 0.00 0.00 38 1015.1
20260905024031 31 155 11.3 25.7 0.00 0.00 0.00 39 1015.1
20260905023526 30 161 12.9 20.9 0.00 0.00 0.00 40 1015.1
20260905023021 30 155 11.3 20.9 0.00 0.00 0.00 41 1014.9
20260905022520 31 145 12.9 20.9 0.00 0.00 0.00 39 1014.8
20260905022016 31 137 17.7 24.1 0.00 0.00 0.00 39 1014.6
20260905021515 31 137 11.3 19.3 0.00 0.00 0.00 40 1014.7
20260905021010 31 147 11.3 20.9 0.00 0.00 0.00 39 1014.6
20260905020505 31 141 9.7 14.5 0.00 0.00 0.00 40 1014.9
20260905020000 31 140 6.4 12.9 0.00 0.00 0.00 40 1014.7
20260905015458 31 100 4.8 14.5 0.00 0.00 0.00 39 1014.3
20260905014958 31 109 8.0 16.1 0.00 0.00 0.00 40 1014.7
20260905014453 31 125 6.4 12.9 0.00 0.00 0.00 41 1014.5
20260905013948 31 113 6.4 9.7 0.00 0.00 0.00 41 1014.6
20260905013444 31 147 8.0 11.3 0.00 0.00 0.00 41 1014.5
20260905012939 31 87 1.6 11.3 0.00 0.00 0.00 41 1014.6
20260905012434 31 132 3.2 8.0 0.00 0.00 0.00 42 1014.3
20260905011931 31 101 6.4 6.4 0.00 0.00 0.00 42 1014.6
20260905011427 31 103 3.2 6.4 0.00 0.00 0.00 42 1014.5
20260905010922 31 109 3.2 6.4 0.00 0.00 0.00 41 1014.3
20260905010417 31 119 6.4 6.4 0.00 0.00 0.00 40 1014.2
20260905005913 32 126 3.2 6.4 0.00 0.00 0.00 40 1014.1
20260905005409 32 97 6.4 9.7 0.00 0.00 0.00 39 1014.2
20260905004903 32 95 3.2 8.0 0.00 0.00 0.00 39 1014.3
20260905004403 32 108 3.2 8.0 0.00 0.00 0.00 38 1014.1
20260905003858 32 154 6.4 8.0 0.00 0.00 0.00 38 1014.1
20260905003355 32 138 8.0 11.3 0.00 0.00 0.00 37 1014.0
20260905002851 33 123 3.2 9.7 0.00 0.00 0.00 36 1014.0
20260905002349 33 74 3.2 9.7 0.00 0.00 0.00 35 1014.2
20260905001844 33 148 9.7 12.9 0.00 0.00 0.00 35 1014.0
20260905001339 33 106 6.4 11.3 0.00 0.00 0.00 33 1014.0
20260905000834 33 135 4.8 11.3 0.00 0.00 0.00 34 1014.1
20260905000330 33 112 4.8 16.1 0.00 0.00 0.00 33 1013.8
20260904235825 34 107 8.0 12.9 0.00 0.00 0.00 32 1013.9
20260904235320 34 96 11.3 16.1 0.00 0.00 0.00 31 1013.9
20260904234814 34 106 9.7 17.7 0.00 0.00 0.00 31 1014.0
20260904234309 35 124 6.4 16.1 0.00 0.00 0.00 30 1013.8
20260904233805 35 152 6.4 19.3 0.00 0.00 0.00 30 1013.6
20260904233255 35 146 9.7 17.7 0.00 0.00 0.00 31 1013.6
20260904232751 35 131 8.0 14.5 0.00 0.00 0.00 32 1013.7
20260904232248 35 144 12.9 22.5 0.00 0.00 0.00 31 1013.5
20260904231743 35 150 12.9 20.9 0.00 0.00 0.00 29 1013.6
20260904231233 36 144 11.3 14.5 0.00 0.00 0.00 29 1013.6
20260904230732 36 166 16.1 20.9 0.00 0.00 0.00 28 1013.6
20260904230226 36 150 14.5 19.3 0.00 0.00 0.00 28 1013.3
20260904225726 36 160 14.5 20.9 0.00 0.00 0.00 28 1013.2
20260904225220 35 150 8.0 24.1 0.00 0.00 0.00 29 1013.2
20260904224719 35 128 4.8 19.3 0.00 0.00 0.00 29 1013.2
20260904224215 35 150 12.9 14.5 0.00 0.00 0.00 31 1013.6
20260904223713 35 135 11.3 17.7 0.00 0.00 0.00 29 1013.6
20260904223209 35 138 17.7 20.9 0.00 0.00 0.00 29 1013.6
20260904222704 35 132 6.4 24.1 0.00 0.00 0.00 30 1013.5
20260904222200 36 111 9.7 14.5 0.00 0.00 0.00 28 1013.6
20260904221659 36 118 6.4 19.3 0.00 0.00 0.00 29 1013.6
20260904221154 36 166 9.7 20.9 0.00 0.00 0.00 28 1013.5
20260904220649 36 154 20.9 22.5 0.00 0.00 0.00 28 1013.6
20260904220144 36 143 14.5 27.4 0.00 0.00 0.00 28 1013.8
20260904215638 36 157 9.7 24.1 0.00 0.00 0.00 28 1013.9
20260904215135 36 133 14.5 17.7 0.00 0.00 0.00 29 1013.9
20260904214635 36 149 14.5 20.9 0.00 0.00 0.00 29 1014.0
20260904214131 36 147 11.3 29.0 0.00 0.00 0.00 30 1014.2
20260904213628 36 160 19.3 30.6 0.00 0.00 0.00 30 1013.8
20260904213125 36 145 20.9 30.6 0.00 0.00 0.00 29 1014.1
20260904212620 35 146 14.5 25.7 0.00 0.00 0.00 30 1013.9
20260904212115 35 118 19.3 25.7 0.00 0.00 0.00 31 1014.0
20260904211614 35 134 20.9 27.4 0.00 0.00 0.00 31 1014.1
20260904211109 35 151 20.9 27.4 0.00 0.00 0.00 32 1014.2
20260904210604 35 153 11.3 19.3 0.00 0.00 0.00 32 1014.1
20260904210100 35 145 17.7 20.9 0.00 0.00 0.00 32 1014.1
20260904205555 34 127 14.5 27.4 0.00 0.00 0.00 33 1014.5
20260904205051 35 152 17.7 33.8 0.00 0.00 0.00 32 1014.3
20260904204547 37 163 16.1 24.1 0.00 0.00 0.00 28 1014.2
20260904204043 37 182 16.1 30.6 0.00 0.00 0.00 28 1014.2
20260904203539 36 160 17.7 29.0 0.00 0.00 0.00 29 1014.2
20260904203035 37 156 25.7 27.4 0.00 0.00 0.00 29 1014.3
20260904202530 36 195 9.7 17.7 0.00 0.00 0.00 29 1014.6
20260904202026 36 169 8.0 17.7 0.00 0.00 0.00 30 1014.5
20260904201522 37 197 14.5 19.3 0.00 0.00 0.00 29 1014.7
20260904201017 36 186 9.7 14.5 0.00 0.00 0.00 29 1014.6
20260904200515 35 230 9.7 16.1 0.00 0.00 0.00 30 1014.8
20260904200011 37 203 11.3 25.7 0.00 0.00 0.00 27 1014.8
20260904195508 37 203 16.1 19.3 0.00 0.00 0.00 28 1014.9
20260904195008 37 175 25.7 29.0 0.00 0.00 0.00 29 1014.8
20260904194503 36 149 8.0 9.7 0.00 0.00 0.00 30 1014.9
20260904193957 36 169 8.0 19.3 0.00 0.00 0.00 29 1014.9
20260904193452 36 205 4.8 20.9 0.00 0.00 0.00 28 1015.0
20260904192948 37 154 4.8 19.3 0.00 0.00 0.00 28 1015.1
20260904192444 36 169 6.4 12.9 0.00 0.00 0.00 29 1015.2
20260904191940 36 100 9.7 16.1 0.00 0.00 0.00 31 1015.1
20260904191436 36 261 3.2 11.3 0.00 0.00 0.00 33 1015.2
20260904190932 36 200 19.3 20.9 0.00 0.00 0.00 31 1015.5
20260904190427 35 165 6.4 11.3 0.00 0.00 0.00 33 1015.6
20260904185923 35 65 4.8 12.9 0.00 0.00 0.00 32 1015.6
20260904185419 35 154 6.4 27.4 0.00 0.00 0.00 32 1015.6
20260904184919 36 196 9.7 17.7 0.00 0.00 0.00 32 1015.5
20260904184414 35 180 9.7 17.7 0.00 0.00 0.00 33 1015.7
20260904183909 36 170 3.2 6.4 0.00 0.00 0.00 31 1015.8
20260904183404 35 202 3.2 14.5 0.00 0.00 0.00 33 1015.8
20260904182859 35 264 4.8 19.3 0.00 0.00 0.00 34 1015.9
20260904182354 35 162 4.8 12.9 0.00 0.00 0.00 33 1015.9
20260904181849 35 208 14.5 24.1 0.00 0.00 0.00 34 1016.1
20260904181344 35 174 11.3 16.1 0.00 0.00 0.00 35 1015.9
20260904180840 35 240 8.0 19.3 0.00 0.00 0.00 34 1016.1
20260904180335 35 192 11.3 20.9 0.00 0.00 0.00 34 1016.2
20260904175834 35 154 4.8 8.0 0.00 0.00 0.00 35 1016.3
20260904175334 35 190 12.9 24.1 0.00 0.00 0.00 35 1016.5
20260904174827 35 227 6.4 8.0 0.00 0.00 0.00 34 1016.6
20260904174323 35 170 6.4 17.7 0.00 0.00 0.00 36 1016.3
20260904173819 34 237 4.8 22.5 0.00 0.00 0.00 34 1016.5
20260904173314 34 195 3.2 22.5 0.00 0.00 0.00 33 1016.6
20260904172810 34 180 4.8 14.5 0.00 0.00 0.00 35 1016.6
20260904172309 34 194 12.9 27.4 0.00 0.00 0.00 36 1016.8
20260904171804 34 150 8.0 8.0 0.00 0.00 0.00 36 1016.6
20260904171259 33 192 9.7 14.5 0.00 0.00 0.00 37 1016.7
20260904170756 33 172 11.3 16.1 0.00 0.00 0.00 39 1016.7
20260904170251 33 173 8.0 9.7 0.00 0.00 0.00 38 1016.6
20260904165750 33 218 9.7 16.1 0.00 0.00 0.00 35 1016.7
20260904165244 33 195 14.5 14.5 0.00 0.00 0.00 36 1016.8
20260904164738 33 229 9.7 14.5 0.00 0.00 0.00 39 1016.6
20260904164234 32 224 9.7 17.7 0.00 0.00 0.00 39 1016.7
20260904163730 33 244 11.3 17.7 0.00 0.00 0.00 37 1016.6
20260904163225 33 216 16.1 17.7 0.00 0.00 0.00 39 1016.6
20260904162724 32 197 8.0 16.1 0.00 0.00 0.00 39 1016.6
20260904162219 32 248 9.7 14.5 0.00 0.00 0.00 40 1016.6
20260904161715 31 219 12.9 19.3 0.00 0.00 0.00 40 1016.3
20260904161209 31 203 6.4 12.9 0.00 0.00 0.00 41 1016.5
20260904160705 31 226 9.7 17.7 0.00 0.00 0.00 42 1016.6
20260904160201 31 195 9.7 9.7 0.00 0.00 0.00 43 1016.5
20260904155655 31 194 9.7 17.7 0.00 0.00 0.00 45 1016.7
20260904155155 31 239 6.4 12.9 0.00 0.00 0.00 45 1016.3
20260904154653 30 217 11.3 12.9 0.00 0.00 0.00 48 1016.5
20260904154153 30 219 8.0 14.5 0.00 0.00 0.00 48 1016.3
20260904153649 30 241 6.4 12.9 0.00 0.00 0.00 49 1016.2
20260904153144 28 221 9.7 11.3 0.00 0.00 0.00 50 1016.3
20260904152641 29 206 8.0 12.9 0.00 0.00 0.00 50 1016.2
20260904152136 28 213 9.7 11.3 0.00 0.00 0.00 50 1016.2
20260904151630 28 236 6.4 12.9 0.00 0.00 0.00 50 1016.0
20260904151129 28 215 6.4 14.5 0.00 0.00 0.00 49 1016.1
20260904150625 28 210 9.7 9.7 0.00 0.00 0.00 50 1016.2
20260904150120 28 225 4.8 11.3 0.00 0.00 0.00 51 1016.3
20260904145618 28 200 8.0 12.9 0.00 0.00 0.00 49 1016.3
20260904145114 27 201 4.8 12.9 0.00 0.00 0.00 49 1016.2
20260904144609 27 195 6.4 8.0 0.00 0.00 0.00 52 1016.3
20260904144105 27 167 6.4 9.7 0.00 0.00 0.00 55 1016.2
20260904143601 27 171 6.4 8.0 0.00 0.00 0.00 54 1016.3
20260904143057 26 168 4.8 9.7 0.00 0.00 0.00 55 1016.3
20260904142554 26 152 6.4 8.0 0.00 0.00 0.00 56 1016.3
20260904142053 26 156 3.2 4.8 0.00 0.00 0.00 57 1016.3
20260904141549 26 147 3.2 3.2 0.00 0.00 0.00 59 1016.2
20260904141044 25 188 3.2 3.2 0.00 0.00 0.00 59 1016.1
20260904140539 25 234 1.6 3.2 0.00 0.00 0.00 61 1016.2
20260904140033 25 268 0.0 3.2 0.00 0.00 0.00 60 1015.9
20260904135533 27 103 0.0 0.0 0.00 0.00 0.00 58 1016.2
20260904135029 26 62 0.0 1.6 0.00 0.00 0.00 61 1016.1
20260904134524 25 22 0.0 1.6 0.00 0.00 0.00 65 1016.0
20260904134019 23 116 0.0 1.6 0.00 0.00 0.00 68 1015.9
20260904133513 23 122 1.6 3.2 0.00 0.00 0.00 69 1016.1
20260904133009 23 145 0.0 3.2 0.00 0.00 0.00 71 1016.0
20260904132504 22 142 0.0 1.6 0.00 0.00 0.00 75 1016.0
20260904132003 21 89 0.0 1.6 0.00 0.00 0.00 78 1015.8
20260904131458 20 130 0.0 3.2 0.00 0.00 0.00 81 1015.9
20260904130954 20 105 1.6 3.2 0.00 0.00 0.00 84 1015.6
20260904130453 18 92 0.0 3.2 0.00 0.00 0.00 84 1015.9
20260904125949 18 66 0.0 1.6 0.00 0.00 0.00 85 1015.7
20260904125444 18 134 1.6 3.2 0.00 0.00 0.00 85 1015.6
20260904124943 18 161 3.2 3.2 0.00 0.00 0.00 85 1015.5
20260904124440 18 156 0.0 3.2 0.00 0.00 0.00 86 1015.6
20260904123935 18 156 3.2 4.8 0.00 0.00 0.00 85 1015.5
20260904123431 18 162 3.2 4.8 0.00 0.00 0.00 84 1015.6
20260904122926 19 192 3.2 6.4 0.00 0.00 0.00 84 1015.1
20260904122426 18 195 4.8 6.4 0.00 0.00 0.00 86 1015.2
20260904121920 18 178 4.8 6.4 0.00 0.00 0.00 85 1015.0
20260904121417 18 159 3.2 4.8 0.00 0.00 0.00 83 1015.1
20260904120913 20 199 4.8 6.4 0.00 0.00 0.00 81 1015.2
20260904120409 19 216 3.2 3.2 0.00 0.00 0.00 82 1015.1
20260904115904 19 299 1.6 3.2 0.00 0.00 0.00 82 1015.2
20260904115359 19 129 0.0 1.6 0.00 0.00 0.00 82 1015.1
20260904114853 19 145 1.6 3.2 0.00 0.00 0.00 82 1014.9
20260904114348 19 202 3.2 3.2 0.00 0.00 0.00 83 1015.1
20260904113843 19 142 3.2 4.8 0.00 0.00 0.00 82 1015.0
20260904113343 19 191 3.2 4.8 0.00 0.00 0.00 82 1015.1
20260904112837 20 169 4.8 6.4 0.00 0.00 0.00 80 1014.9
20260904112333 20 148 4.8 8.0 0.00 0.00 0.00 80 1015.1
20260904111828 20 154 6.4 6.4 0.00 0.00 0.00 79 1015.1
20260904111324 20 198 8.0 11.3 0.00 0.00 0.00 77 1015.1
20260904110820 20 173 4.8 6.4 0.00 0.00 0.00 78 1015.1
20260904110319 21 186 6.4 8.0 0.00 0.00 0.00 77 1015.0
20260904105813 21 168 8.0 9.7 0.00 0.00 0.00 74 1014.8
20260904105308 21 139 6.4 9.7 0.00 0.00 0.00 73 1014.7
20260904104803 22 156 8.0 9.7 0.00 0.00 0.00 72 1014.7
20260904104259 22 164 8.0 11.3 0.00 0.00 0.00 72 1014.8
20260904103756 22 141 8.0 11.3 0.00 0.00 0.00 72 1014.7
20260904103255 22 158 12.9 16.1 0.00 0.00 0.00 72 1014.7
20260904102751 22 161 11.3 12.9 0.00 0.00 0.00 72 1014.7
20260904102246 21 146 9.7 12.9 0.00 0.00 0.00 73 1014.8
20260904101742 21 147 11.3 11.3 0.00 0.00 0.00 72 1014.6
20260904101238 21 146 8.0 12.9 0.00 0.00 0.00 72 1014.5
20260904100734 22 148 9.7 11.3 0.00 0.00 0.00 72 1014.5
20260904100230 22 147 8.0 12.9 0.00 0.00 0.00 71 1014.3
20260904095729 22 140 6.4 11.3 0.00 0.00 0.00 71 1014.3
20260904095224 22 134 9.7 12.9 0.00 0.00 0.00 70 1014.5
20260904094720 22 133 9.7 14.5 0.00 0.00 0.00 69 1014.3
20260904094219 22 143 12.9 16.1 0.00 0.00 0.00 69 1014.1
20260904093716 22 138 9.7 19.3 0.00 0.00 0.00 69 1014.2
20260904093215 22 138 14.5 19.3 0.00 0.00 0.00 68 1014.1
20260904092711 22 136 11.3 17.7 0.00 0.00 0.00 68 1014.1
20260904092207 22 126 12.9 19.3 0.00 0.00 0.00 68 1014.1
20260904091703 22 131 14.5 17.7 0.00 0.00 0.00 68 1014.3
20260904091158 22 134 9.7 17.7 0.00 0.00 0.00 67 1013.9
20260904090654 22 140 11.3 17.7 0.00 0.00 0.00 66 1014.5
20260904090149 22 148 11.3 19.3 0.00 0.00 0.00 67 1014.5
20260904085644 22 150 14.5 19.3 0.00 0.00 0.00 67 1014.1
20260904085143 22 151 11.3 16.1 0.00 0.00 0.00 67 1014.1
20260904084639 22 148 9.7 11.3 0.00 0.00 0.00 68 1014.3
20260904084135 22 156 11.3 14.5 0.00 0.00 0.00 67 1014.5
20260904083631 23 147 9.7 19.3 0.00 0.00 0.00 66 1014.5
20260904083127 23 160 11.3 16.1 0.00 0.00 0.00 65 1014.6
20260904082621 23 144 14.5 19.3 0.00 0.00 0.00 64 1014.6
20260904082117 23 148 12.9 20.9 0.00 0.00 0.00 64 1014.5
20260904081612 23 153 9.7 19.3 0.00 0.00 0.00 64 1014.5
20260904081108 23 153 9.7 16.1 0.00 0.00 0.00 64 1014.3
20260904080603 23 148 12.9 19.3 0.00 0.00 0.00 64 1014.6
20260904080059 23 151 17.7 20.9 0.00 0.00 0.00 63 1014.3
20260904075555 23 148 11.3 17.7 0.00 0.00 0.00 63 1014.2
20260904075050 23 145 14.5 19.3 0.00 0.00 0.00 62 1014.5
20260904074548 23 140 11.3 20.9 0.00 0.00 0.00 61 1014.6
20260904074038 23 156 9.7 19.3 0.00 0.00 0.00 62 1014.3
20260904073533 24 139 11.3 16.1 0.00 0.00 0.00 62 1014.2
20260904073030 24 149 14.5 17.7 0.00 0.00 0.00 61 1014.5
20260904072525 24 159 14.5 20.9 0.00 0.00 0.00 62 1014.3
20260904072020 23 154 19.3 22.5 0.00 0.00 0.00 62 1014.5
20260904071515 23 159 14.5 22.5 0.00 0.00 0.00 63 1014.3
20260904071010 23 156 12.9 20.9 0.00 0.00 0.00 64 1014.6
20260904070509 23 158 14.5 17.7 0.00 0.00 0.00 65 1014.7
20260904070004 22 162 12.9 16.1 0.00 0.00 0.00 68 1014.6
20260904065459 22 157 8.0 12.9 0.00 0.00 0.00 71 1014.6
20260904064955 22 155 9.7 12.9 0.00 0.00 0.00 72 1014.6
20260904064451 22 169 9.7 11.3 0.00 0.00 0.00 70 1014.7
20260904063945 22 168 9.7 14.5 0.00 0.00 0.00 69 1014.8
20260904063442 22 153 8.0 17.7 0.00 0.00 0.00 68 1014.8
20260904062937 23 149 9.7 17.7 0.00 0.00 0.00 67 1014.7
20260904062433 22 157 11.3 17.7 0.00 0.00 0.00 68 1014.8
20260904061928 23 156 19.3 20.9 0.00 0.00 0.00 67 1014.8
20260904061425 22 157 12.9 19.3 0.00 0.00 0.00 68 1015.0
20260904060921 22 149 11.3 19.3 0.00 0.00 0.00 69 1015.0
20260904060416 22 159 16.1 19.3 0.00 0.00 0.00 68 1014.9
20260904055912 22 153 16.1 20.9 0.00 0.00 0.00 68 1014.9
20260904055407 22 160 12.9 19.3 0.00 0.00 0.00 69 1015.0
20260904054903 22 140 11.3 19.3 0.00 0.00 0.00 69 1014.9
20260904054358 22 154 9.7 17.7 0.00 0.00 0.00 71 1014.9
20260904053854 22 160 14.5 20.9 0.00 0.00 0.00 71 1015.1
20260904053353 22 152 12.9 19.3 0.00 0.00 0.00 71 1015.0